Hourly Weather Roundup
Issued by NWS Central Illinois

Home | Current Version | Previous Version | Text Only | Print | Product List | Glossary On
Versions: 1 2 3 4 5 6 7 8 9 10 11 12 13 14 15 16 17 18 19 20 21 22 23 24 25 26 27 28 29 30 31 32 33 34 35 36 37 38 39 40 41 42 43 44 45 46 47 48 49 50
000
NZUS43 KILX 021410
HWRILX

AREA WEATHER ROUNDUP
NATIONAL WEATHER SERVICE, LINCOLN IL
900 AM CDT SUN AUG 02 2015


CITY           SKY/WX    TMP DP  RH WIND       PRES   REMARKS
BLOOMINGTON    SUNNY     77  72  84 SW12      29.94F
CHAMPAIGN      SUNNY     77  69  76 SW10      29.95S
DANVILLE       SUNNY     75  68  78 SW8       29.93S
DECATUR        MOSUNNY   79  69  71 SW8       29.95F HX  81
EFFINGHAM      SUNNY     79  63  58 SW6       29.99S HX  80
FLORA          SUNNY     78  64  61 SW6       29.98S HX  80
GALESBURG      MOSUNNY   75  67  76 S8        29.89F
JACKSONVILLE   PTSUNNY   80  73  78 SW8       29.93S HX  84
LACON          SUNNY     77  64  64 SW10G16   29.88F
LAWRENCEVILLE  SUNNY     77  66  68 SW6       29.99R
LITCHFIELD     SUNNY     78  70  77 SW5       29.96F HX  80
$$


CITY           SKY/WX    TMP DP  RH WIND       PRES   REMARKS
LINCOLN        SUNNY     81  71  72 SW8       29.92F HX  85
MACOMB         CLOUDY    74  67  76 SW7       29.93S
MATTOON        SUNNY     77  65  66 SW10      29.96S
MT CARMEL AP   SUNNY     79  63  57 SW7       29.99R HX  80
OLNEY-NOBLE AP SUNNY     77  66  69 S5        29.99R
PARIS          SUNNY     78  68  72 SW7       29.97S
PEORIA         SUNNY     78  68  71 SW10      29.91S HX  80
PONTIAC        SUNNY     79  74  84 SW13      29.91S HX  82
RANTOUL        SUNNY     79  71  75 SW9       29.94S HX  81
ROBINSON       SUNNY     77  66  69 SW5       29.99S
SPRINGFIELD    SUNNY     80  70  71 SW12G17   29.93F HX  83
TAYLORVILLE    SUNNY     79  72  78 SW7       29.95F HX  82
$$

...REGIONAL REPORTS...


CITY           SKY/WX    TMP DP  RH WIND       PRES   REMARKS
CHICAGO O`HARE MOSUNNY   80  65  59 SW16G25   29.84S HX  82
KANKAKEE       SUNNY     79  71  76 SW13G20   29.90S HX  82
MOLINE         MOSUNNY   79  64  60 SW12      29.85F HX  81
MOUNT STERLING NOT AVBL
MOUNT VERNON   SUNNY     81  66  61 S6        29.99S HX  83
PITTSFIELD     PTSUNNY   78  70  74 SW7       29.94S HX  81
QUINCY         PTSUNNY   76  69  79 SW12      29.93R
ROCKFORD       MOSUNNY   79  69  71 SW9       29.85S HX  81
$$


CITY           SKY/WX    TMP DP  RH WIND       PRES   REMARKS
BURLINGTON     PTSUNNY   75  67  76 SW10      29.88F
CEDAR RAPIDS   MOSUNNY   73  68  84 S12       29.82S
DES MOINES     CLOUDY    76  66  71 SW13      29.81F
KIRKSVILLE     LGT RAIN  74  65  73 SW9       29.93R
OTTUMWA        LGT RAIN  69  65  86 S8        29.84S
ST LOUIS       MOSUNNY   83  67  58 S9        29.96F HX  85
$$


CITY           SKY/WX    TMP DP  RH WIND       PRES   REMARKS
TERRE HAUTE    SUNNY     77  64  64 SW9       29.98S
EVANSVILLE     SUNNY     78  61  55 S7        30.00R HX  80
INDIANAPOLIS   MOSUNNY   77  62  59 SW10      29.97R
LAFAYETTE      SUNNY     74  65  73 W8        29.94S
MADISON        PTSUNNY   78  67  68 SW8G17    29.77F HX  80
MILWAUKEE      MOSUNNY   80  68  66 SW20G28   29.77F HX  83
$$




USA.gov is the U.S. government's official web portal to all federal, state and local government web resources and services.